"read_dt","SO2 (ppb)","flags","PMT voltage (V)","lamp voltage (V)","lamp intensity (Hz)","internal temp (C)","react chamber temp (C)","sample flow (l/min)","pres (mmHg)","SO2 bkg (ppb)","SO2 coefficient"
2014-10-12 00:00:00,1837E-3,5C000000,-0724,0827,12351,025.9,045.4,0.479,734.5,01.18,0.508
2014-10-12 00:01:00,1892E-3,5C000000,-0724,0826,12194,025.9,045.4,0.479,734.4,01.18,0.508
2014-10-12 00:02:00,2007E-3,5C000000,-0724,0827,12212,025.9,045.4,0.479,734.5,01.18,0.508
2014-10-12 00:03:00,2079E-3,5C000000,-0724,0827,12248,026.0,045.4,0.479,734.5,01.18,0.508
2014-10-12 00:04:00,1978E-3,5C000000,-0724,0827,12171,026.1,045.4,0.479,734.4,01.18,0.508
2014-10-12 00:05:00,2016E-3,5C000000,-0724,0827,12272,026.1,045.4,0.479,734.4,01.18,0.508
2014-10-12 00:06:00,1857E-3,5C000000,-0724,0826,12090,026.2,045.4,0.479,734.4,01.18,0.508
2014-10-12 00:07:00,1971E-3,5C000000,-0724,0827,12334,026.3,045.4,0.479,734.4,01.18,0.508
2014-10-12 00:08:00,1925E-3,5C000000,-0724,0827,12188,026.4,045.4,0.479,734.4,01.18,0.508
2014-10-12 00:09:00,1882E-3,5C000000,-0724,0827,12235,026.4,045.4,0.478,734.4,01.18,0.508
2014-10-12 00:10:00,1943E-3,5C000000,-0724,0826,12105,026.5,045.4,0.478,734.5,01.18,0.508
2014-10-12 00:11:00,1995E-3,5C000000,-0724,0827,12255,026.5,045.4,0.479,734.5,01.18,0.508
2014-10-12 00:12:00,1981E-3,5C000000,-0724,0827,12128,026.5,045.4,0.479,734.5,01.18,0.508
2014-10-12 00:13:00,1913E-3,5C000000,-0724,0827,12104,026.5,045.4,0.478,734.5,01.18,0.508
2014-10-12 00:14:00,1868E-3,5C000000,-0724,0826,12008,026.6,045.4,0.478,734.5,01.18,0.508
2014-10-12 00:15:00,2011E-3,5C000000,-0724,0826,12161,026.5,045.4,0.478,734.5,01.18,0.508
2014-10-12 00:16:00,2089E-3,5C000000,-0724,0826,12255,026.5,045.4,0.478,734.5,01.18,0.508
2014-10-12 00:17:00,2010E-3,5C000000,-0724,0826,12267,026.5,045.4,0.478,734.5,01.18,0.508
2014-10-12 00:18:00,1890E-3,5C000000,-0724,0826,12005,026.4,045.4,0.478,734.5,01.18,0.508
2014-10-12 00:19:00,1987E-3,5C000000,-0724,0827,12136,026.3,045.4,0.478,734.5,01.18,0.508
2014-10-12 00:20:00,1985E-3,5C000000,-0724,0827,12055,026.3,045.4,0.479,734.5,01.18,0.508
2014-10-12 00:21:00,1900E-3,5C000000,-0724,0826,12272,026.2,045.4,0.479,734.5,01.18,0.508
2014-10-12 00:22:00,2110E-3,5C000000,-0724,0826,12165,026.2,045.4,0.479,734.5,01.18,0.508
2014-10-12 00:23:00,1942E-3,5C000000,-0724,0827,12142,026.1,045.4,0.479,734.5,01.18,0.508
2014-10-12 00:24:00,1938E-3,5C000000,-0724,0827,12389,026.1,045.4,0.479,734.5,01.18,0.508
2014-10-12 00:25:00,1951E-3,5C000000,-0724,0827,12004,026.1,045.4,0.480,734.5,01.18,0.508
2014-10-12 00:26:00,2012E-3,5C000000,-0724,0826,12185,026.0,045.4,0.479,734.5,01.18,0.508
2014-10-12 00:27:00,2107E-3,5C000000,-0724,0827,12392,026.0,045.4,0.479,734.5,01.18,0.508
2014-10-12 00:28:00,1910E-3,5C000000,-0724,0826,12191,026.0,045.4,0.480,734.5,01.18,0.508
2014-10-12 00:29:00,1836E-3,5C000000,-0724,0826,12211,026.0,045.4,0.479,734.5,01.18,0.508
2014-10-12 00:30:00,1979E-3,5C000000,-0724,0826,12221,026.0,045.4,0.479,734.5,01.18,0.508
2014-10-12 00:31:00,2024E-3,5C000000,-0724,0825,12095,026.0,045.4,0.480,734.5,01.18,0.508
2014-10-12 00:32:00,1948E-3,5C000000,-0724,0825,12148,025.9,045.4,0.480,734.5,01.18,0.508
2014-10-12 00:33:00,1948E-3,5C000000,-0724,0827,12077,025.9,045.4,0.480,734.5,01.18,0.508
2014-10-12 00:34:00,1889E-3,5C000000,-0724,0827,12208,026.0,045.4,0.480,734.5,01.18,0.508
2014-10-12 00:35:00,1942E-3,5C000000,-0724,0827,12140,025.9,045.4,0.480,734.5,01.18,0.508
2014-10-12 00:36:00,1975E-3,5C000000,-0724,0825,12177,026.0,045.4,0.480,734.5,01.18,0.508
2014-10-12 00:37:00,1845E-3,5C000000,-0724,0827,12122,026.0,045.4,0.480,734.4,01.18,0.508
2014-10-12 00:38:00,1955E-3,5C000000,-0724,0826,12285,026.1,045.4,0.480,734.4,01.18,0.508
2014-10-12 00:39:00,1801E-3,5C000000,-0724,0827,12322,026.1,045.4,0.479,734.4,01.18,0.508
2014-10-12 00:40:00,1912E-3,5C000000,-0724,0827,12334,026.2,045.4,0.479,734.4,01.18,0.508
2014-10-12 00:41:00,1863E-3,5C000000,-0724,0826,12313,026.3,045.4,0.479,734.4,01.18,0.508
2014-10-12 00:42:00,1896E-3,5C000000,-0724,0826,12294,026.3,045.4,0.479,734.4,01.18,0.508
2014-10-12 00:43:00,1956E-3,5C000000,-0724,0826,12190,026.4,045.4,0.479,734.4,01.18,0.508
2014-10-12 00:44:00,1979E-3,5C000000,-0724,0826,12161,026.4,045.4,0.479,734.4,01.18,0.508
2014-10-12 00:45:00,2072E-3,5C000000,-0724,0826,12401,026.4,045.4,0.479,734.4,01.18,0.508
2014-10-12 00:46:00,1868E-3,5C000000,-0724,0827,12201,026.4,045.4,0.479,734.4,01.18,0.508
2014-10-12 00:47:00,1953E-3,5C000000,-0724,0827,12209,026.4,045.4,0.479,734.5,01.18,0.508
2014-10-12 00:48:00,1883E-3,5C000000,-0724,0826,12218,026.5,045.4,0.479,734.4,01.18,0.508
2014-10-12 00:49:00,2084E-3,5C000000,-0724,0826,12280,026.5,045.4,0.479,734.4,01.18,0.508
2014-10-12 00:50:00,1995E-3,5C000000,-0724,0826,12214,026.5,045.4,0.478,734.4,01.18,0.508
2014-10-12 00:51:00,1958E-3,5C000000,-0724,0826,12333,026.5,045.4,0.478,734.4,01.18,0.508
2014-10-12 00:52:00,2012E-3,5C000000,-0724,0826,12142,026.5,045.4,0.478,734.4,01.18,0.508
2014-10-12 00:53:00,1982E-3,5C000000,-0724,0826,12375,026.5,045.4,0.478,734.4,01.18,0.508
2014-10-12 00:54:00,2005E-3,5C000000,-0724,0826,12173,026.4,045.4,0.478,734.4,01.18,0.508
2014-10-12 00:55:00,1994E-3,5C000000,-0724,0826,12156,026.3,045.4,0.478,734.4,01.18,0.508
2014-10-12 00:56:00,1832E-3,5C000000,-0724,0825,12139,026.3,045.4,0.479,734.3,01.18,0.508
2014-10-12 00:57:00,2069E-3,5C000000,-0724,0826,12246,026.2,045.4,0.478,734.3,01.18,0.508
2014-10-12 00:58:00,1969E-3,5C000000,-0724,0826,12146,026.2,045.4,0.479,734.3,01.18,0.508
2014-10-12 00:59:00,1942E-3,5C000000,-0724,0826,12231,026.1,045.4,0.479,734.3,01.18,0.508
2014-10-12 01:00:00,1882E-3,5C000000,-0724,0827,12271,026.1,045.4,0.479,734.3,01.18,0.508
2014-10-12 01:01:00,1909E-3,5C000000,-0724,0828,12392,026.0,045.4,0.479,734.3,01.18,0.508
2014-10-12 01:02:00,1968E-3,5C000000,-0724,0827,12344,026.0,045.4,0.479,734.3,01.18,0.508
2014-10-12 01:03:00,1944E-3,5C000000,-0724,0825,12276,026.0,045.4,0.480,734.3,01.18,0.508
2014-10-12 01:04:00,1907E-3,5C000000,-0724,0825,12152,026.0,045.4,0.479,734.2,01.18,0.508
2014-10-12 01:05:00,2132E-3,5C000000,-0724,0827,12305,026.0,045.4,0.479,734.2,01.18,0.508
2014-10-12 01:06:00,1921E-3,5C000000,-0724,0827,12194,026.0,045.4,0.480,734.2,01.18,0.508
2014-10-12 01:07:00,1960E-3,5C000000,-0724,0826,12218,025.9,045.4,0.480,734.2,01.18,0.508
2014-10-12 01:08:00,2039E-3,5C000000,-0724,0826,12187,025.9,045.4,0.480,734.2,01.18,0.508
2014-10-12 01:09:00,1855E-3,5C000000,-0724,0826,12182,025.9,045.4,0.480,734.2,01.18,0.508
2014-10-12 01:10:00,1879E-3,5C000000,-0724,0826,12312,025.9,045.4,0.479,734.2,01.18,0.508
2014-10-12 01:11:00,2071E-3,5C000000,-0724,0826,12297,025.9,045.4,0.479,734.2,01.18,0.508
2014-10-12 01:12:00,1925E-3,5C000000,-0724,0826,12291,025.9,045.4,0.479,734.2,01.18,0.508
2014-10-12 01:13:00,1884E-3,5C000000,-0724,0826,12331,025.9,045.4,0.479,734.2,01.18,0.508
2014-10-12 01:14:00,1807E-3,5C000000,-0724,0827,12276,025.9,045.4,0.479,734.2,01.18,0.508
2014-10-12 01:15:00,1922E-3,5C000000,-0724,0827,12210,025.9,045.4,0.479,734.2,01.18,0.508
2014-10-12 01:16:00,1939E-3,5C000000,-0724,0826,12076,026.0,045.4,0.480,734.2,01.18,0.508
2014-10-12 01:17:00,1930E-3,5C000000,-0724,0827,12284,026.0,045.4,0.480,734.2,01.18,0.508
2014-10-12 01:18:00,1885E-3,5C000000,-0724,0827,12263,026.1,045.4,0.480,734.2,01.18,0.508
2014-10-12 01:19:00,1991E-3,5C000000,-0724,0826,12227,026.1,045.4,0.479,734.2,01.18,0.508
2014-10-12 01:20:00,1998E-3,5C000000,-0724,0826,12362,026.2,045.4,0.479,734.2,01.18,0.508
2014-10-12 01:21:00,1963E-3,5C000000,-0724,0826,12244,026.3,045.4,0.479,734.2,01.18,0.508
2014-10-12 01:22:00,2017E-3,5C000000,-0724,0826,12381,026.4,045.4,0.479,734.2,01.18,0.508
2014-10-12 01:23:00,1927E-3,5C000000,-0724,0826,12389,026.5,045.4,0.479,734.2,01.18,0.508
2014-10-12 01:24:00,1927E-3,5C000000,-0724,0826,12317,026.6,045.4,0.478,734.2,01.18,0.508
2014-10-12 01:25:00,1906E-3,5C000000,-0724,0826,12111,026.6,045.4,0.478,734.2,01.18,0.508
2014-10-12 01:26:00,1853E-3,5C000000,-0724,0826,12376,026.6,045.4,0.478,734.2,01.18,0.508
2014-10-12 01:27:00,1868E-3,5C000000,-0724,0826,12170,026.7,045.4,0.478,734.1,01.19,0.508
2014-10-12 01:28:00,1905E-3,5C000000,-0724,0826,12163,026.7,045.4,0.478,734.2,01.18,0.508
2014-10-12 01:29:00,1930E-3,5C000000,-0724,0826,12074,026.7,045.4,0.478,734.2,01.18,0.508
2014-10-12 01:30:00,1862E-3,5C000000,-0724,0826,12346,026.6,045.4,0.478,734.1,01.19,0.508
2014-10-12 01:31:00,2058E-3,5C000000,-0724,0826,12240,026.6,045.4,0.478,734.1,01.19,0.508
2014-10-12 01:32:00,1935E-3,5C000000,-0724,0827,12198,026.6,045.4,0.478,734.1,01.19,0.508
2014-10-12 01:33:00,1999E-3,5C000000,-0724,0827,12194,026.5,045.4,0.478,734.1,01.19,0.508
2014-10-12 01:34:00,1912E-3,5C000000,-0724,0827,12174,026.4,045.4,0.478,734.1,01.19,0.508
2014-10-12 01:35:00,1937E-3,5C000000,-0724,0826,12264,026.4,045.4,0.478,734.1,01.19,0.508
2014-10-12 01:36:00,1881E-3,5C000000,-0724,0827,12280,026.3,045.4,0.478,734.1,01.19,0.508
2014-10-12 01:37:00,2078E-3,5C000000,-0724,0826,12329,026.3,045.4,0.478,734.1,01.19,0.508
2014-10-12 01:38:00,1929E-3,5C000000,-0724,0827,12171,026.2,045.4,0.479,734.1,01.19,0.508
2014-10-12 01:39:00,1824E-3,5C000000,-0724,0827,12126,026.2,045.4,0.479,734.1,01.19,0.508
2014-10-12 01:40:00,1881E-3,5C000000,-0724,0826,12309,026.1,045.4,0.479,734.1,01.19,0.508
2014-10-12 01:41:00,1820E-3,5C000000,-0724,0827,12010,026.1,045.4,0.479,734.0,01.19,0.508
2014-10-12 01:42:00,1939E-3,5C000000,-0724,0826,11998,026.0,045.4,0.479,734.0,01.19,0.508
2014-10-12 01:43:00,2067E-3,5C000000,-0724,0827,12408,026.0,045.4,0.479,734.0,01.19,0.508
2014-10-12 01:44:00,2047E-3,5C000000,-0724,0825,12221,026.0,045.4,0.480,734.0,01.19,0.508
2014-10-12 01:45:00,2016E-3,5C000000,-0724,0826,12311,026.0,045.4,0.480,734.0,01.19,0.508
2014-10-12 01:46:00,1898E-3,5C000000,-0724,0826,12163,026.0,045.4,0.479,734.0,01.19,0.508
2014-10-12 01:47:00,2047E-3,5C000000,-0724,0826,12268,026.0,045.4,0.479,734.0,01.19,0.508
2014-10-12 01:48:00,1988E-3,5C000000,-0724,0825,12204,026.0,045.4,0.479,734.0,01.19,0.508
2014-10-12 01:49:00,2012E-3,5C000000,-0724,0826,12217,026.0,045.4,0.479,734.0,01.19,0.508
2014-10-12 01:50:00,2083E-3,5C000000,-0724,0827,12284,025.9,045.4,0.479,734.0,01.19,0.508
2014-10-12 01:51:00,1938E-3,5C000000,-0724,0827,12261,025.9,045.4,0.480,734.0,01.19,0.508
2014-10-12 01:52:00,1901E-3,5C000000,-0724,0826,12267,025.9,045.4,0.480,734.0,01.19,0.508
2014-10-12 01:53:00,1898E-3,5C000000,-0724,0826,12162,025.9,045.4,0.479,734.0,01.19,0.508
2014-10-12 01:54:00,1876E-3,5C000000,-0724,0827,12372,025.9,045.4,0.479,734.0,01.19,0.508
2014-10-12 01:55:00,1870E-3,5C000000,-0724,0826,12345,025.9,045.4,0.479,734.0,01.19,0.508
2014-10-12 01:56:00,1987E-3,5C000000,-0724,0826,12265,025.9,045.4,0.479,734.0,01.19,0.508
2014-10-12 01:57:00,1899E-3,5C000000,-0724,0827,12203,025.9,045.4,0.479,734.0,01.19,0.508
2014-10-12 01:58:00,1962E-3,5C000000,-0724,0826,12297,025.9,045.4,0.479,734.0,01.19,0.508
2014-10-12 01:59:00,2047E-3,5C000000,-0724,0826,12256,025.9,045.4,0.480,734.0,01.19,0.508
2014-10-12 02:00:00,1797E-3,5C000000,-0724,0826,12224,025.9,045.4,0.480,734.0,01.19,0.508
2014-10-12 02:01:00,2075E-3,5C000000,-0724,0825,12160,025.9,045.4,0.480,734.0,01.19,0.508
2014-10-12 02:02:00,1892E-3,5C000000,-0724,0826,12354,025.9,045.4,0.480,734.0,01.19,0.508
2014-10-12 02:03:00,1970E-3,5C000000,-0724,0826,12175,025.9,045.4,0.480,734.0,01.19,0.508
2014-10-12 02:04:00,1867E-3,5C000000,-0724,0826,12230,025.9,045.4,0.479,734.0,01.19,0.508
2014-10-12 02:05:00,1984E-3,5C000000,-0724,0826,12298,026.0,045.4,0.479,734.0,01.19,0.508
2014-10-12 02:06:00,1992E-3,5C000000,-0724,0827,12427,026.0,045.4,0.480,734.0,01.19,0.508
2014-10-12 02:07:00,1828E-3,5C000000,-0724,0826,11894,026.1,045.4,0.479,734.0,01.19,0.508
2014-10-12 02:08:00,1755E-3,5C000000,-0724,0827,12352,026.2,045.4,0.479,734.0,01.19,0.508
2014-10-12 02:09:00,2021E-3,5C000000,-0724,0827,12246,026.3,045.4,0.479,733.9,01.19,0.508
2014-10-12 02:10:00,1906E-3,5C000000,-0724,0827,12095,026.4,045.4,0.478,733.9,01.19,0.508
2014-10-12 02:11:00,1938E-3,5C000000,-0724,0827,12138,026.4,045.4,0.479,734.0,01.19,0.508
2014-10-12 02:12:00,1917E-3,5C000000,-0724,0826,12154,026.5,045.4,0.479,734.0,01.19,0.508
2014-10-12 02:13:00,1936E-3,5C000000,-0724,0827,12311,026.5,045.4,0.479,734.0,01.19,0.508
2014-10-12 02:14:00,1981E-3,5C000000,-0724,0827,12337,026.6,045.4,0.478,734.0,01.19,0.508
2014-10-12 02:15:00,1967E-3,5C000000,-0724,0826,12437,026.6,045.4,0.478,734.0,01.19,0.508
2014-10-12 02:16:00,1832E-3,5C000000,-0724,0827,12306,026.6,045.4,0.478,734.0,01.19,0.508
2014-10-12 02:17:00,1721E-3,5C000000,-0724,0828,12384,026.6,045.4,0.478,734.0,01.19,0.508
2014-10-12 02:18:00,2012E-3,5C000000,-0724,0826,12147,026.5,045.4,0.478,734.0,01.19,0.508
2014-10-12 02:19:00,1986E-3,5C000000,-0724,0826,12277,026.5,045.4,0.478,734.0,01.19,0.508
2014-10-12 02:20:00,2029E-3,5C000000,-0724,0826,12245,026.5,045.4,0.478,734.0,01.19,0.508
2014-10-12 02:21:00,2008E-3,5C000000,-0724,0825,12224,026.3,045.4,0.478,734.0,01.19,0.508
2014-10-12 02:22:00,1850E-3,5C000000,-0724,0827,12258,026.3,045.4,0.479,734.0,01.19,0.508
2014-10-12 02:23:00,1886E-3,5C000000,-0724,0826,12308,026.3,045.4,0.478,734.0,01.19,0.508
2014-10-12 02:24:00,1939E-3,5C000000,-0724,0826,12100,026.2,045.4,0.479,733.9,01.19,0.508
2014-10-12 02:25:00,1914E-3,5C000000,-0724,0826,12254,026.2,045.4,0.479,733.9,01.19,0.508
2014-10-12 02:26:00,2025E-3,5C000000,-0724,0826,12219,026.1,045.4,0.479,733.9,01.19,0.508
2014-10-12 02:27:00,1821E-3,5C000000,-0724,0827,12315,026.1,045.4,0.479,733.9,01.19,0.508
2014-10-12 02:28:00,1790E-3,5C000000,-0724,0827,12313,026.1,045.4,0.480,733.8,01.19,0.508
2014-10-12 02:29:00,1843E-3,5C000000,-0724,0826,12155,026.0,045.4,0.479,733.8,01.19,0.508
2014-10-12 02:30:00,2037E-3,5C000000,-0724,0826,12389,026.0,045.4,0.479,733.8,01.19,0.508
2014-10-12 02:31:00,1836E-3,5C000000,-0724,0826,11949,026.0,045.4,0.480,733.8,01.19,0.508
2014-10-12 02:32:00,2019E-3,5C000000,-0724,0827,12246,026.0,045.4,0.480,733.8,01.19,0.508
2014-10-12 02:33:00,2044E-3,5C000000,-0724,0826,12365,026.0,045.4,0.480,733.8,01.19,0.508
2014-10-12 02:34:00,1866E-3,5C000000,-0724,0826,12064,026.0,045.4,0.480,733.8,01.19,0.508
2014-10-12 02:35:00,1950E-3,5C000000,-0724,0826,12187,025.9,045.4,0.480,733.8,01.19,0.508
2014-10-12 02:36:00,1738E-3,5C000000,-0724,0826,12245,025.9,045.4,0.480,733.8,01.19,0.508
2014-10-12 02:37:00,1877E-3,5C000000,-0724,0828,12283,025.9,045.4,0.480,733.8,01.19,0.508
2014-10-12 02:38:00,1858E-3,5C000000,-0724,0826,12166,025.9,045.4,0.480,733.8,01.19,0.508
2014-10-12 02:39:00,1928E-3,5C000000,-0724,0825,12341,025.9,045.4,0.480,733.8,01.19,0.508
2014-10-12 02:40:00,1823E-3,5C000000,-0724,0826,12246,025.9,045.4,0.480,733.8,01.19,0.508
2014-10-12 02:41:00,1913E-3,5C000000,-0724,0826,12268,025.9,045.4,0.480,733.8,01.19,0.508
2014-10-12 02:42:00,2006E-3,5C000000,-0724,0826,12238,025.9,045.4,0.480,733.8,01.19,0.508
2014-10-12 02:43:00,2059E-3,5C000000,-0724,0827,12178,025.9,045.4,0.480,733.8,01.19,0.508
2014-10-12 02:44:00,1936E-3,5C000000,-0724,0826,12358,025.9,045.4,0.479,733.8,01.19,0.508
2014-10-12 02:45:00,1879E-3,5C000000,-0724,0825,12278,025.9,045.4,0.479,733.8,01.19,0.508
2014-10-12 02:46:00,1908E-3,5C000000,-0724,0827,12178,025.9,045.4,0.480,733.8,01.19,0.508
2014-10-12 02:47:00,1843E-3,5C000000,-0724,0826,12238,025.9,045.4,0.480,733.7,01.19,0.508
2014-10-12 02:48:00,1837E-3,5C000000,-0724,0826,12375,025.8,045.4,0.480,733.8,01.19,0.508
2014-10-12 02:49:00,1870E-3,5C000000,-0724,0826,12297,025.9,045.4,0.480,733.8,01.19,0.508
2014-10-12 02:50:00,1963E-3,5C000000,-0724,0826,12140,025.8,045.4,0.480,733.7,01.19,0.508
2014-10-12 02:51:00,1901E-3,5C000000,-0724,0826,12210,025.9,045.4,0.479,733.7,01.19,0.508
2014-10-12 02:52:00,1906E-3,5C000000,-0724,0826,12229,025.8,045.4,0.480,733.7,01.19,0.508
2014-10-12 02:53:00,1873E-3,5C000000,-0724,0826,12327,025.9,045.4,0.480,733.7,01.19,0.508
2014-10-12 02:54:00,1910E-3,5C000000,-0724,0825,12121,025.9,045.4,0.480,733.6,01.19,0.508
2014-10-12 02:55:00,1859E-3,5C000000,-0724,0826,12201,025.9,045.4,0.479,733.6,01.19,0.508
2014-10-12 02:56:00,1954E-3,5C000000,-0724,0826,12017,026.0,045.4,0.480,733.6,01.19,0.508
2014-10-12 02:57:00,1939E-3,5C000000,-0724,0826,12135,026.1,045.4,0.479,733.6,01.19,0.508
2014-10-12 02:58:00,1902E-3,5C000000,-0724,0827,12328,026.2,045.4,0.479,733.7,01.19,0.508
2014-10-12 02:59:00,1878E-3,5C000000,-0724,0826,12197,026.3,045.4,0.479,733.7,01.19,0.508
2014-10-12 03:00:00,1828E-3,5C000000,-0724,0826,12251,026.4,045.4,0.478,733.6,01.19,0.508
2014-10-12 03:01:00,1942E-3,5C000000,-0724,0827,12268,026.4,045.4,0.479,733.7,01.19,0.508
2014-10-12 03:02:00,1896E-3,5C000000,-0724,0825,12147,026.5,045.4,0.478,733.7,01.19,0.508
2014-10-12 03:03:00,2012E-3,5C000000,-0724,0826,12252,026.5,045.4,0.478,733.7,01.19,0.508
2014-10-12 03:04:00,1974E-3,5C000000,-0724,0825,12196,026.6,045.4,0.478,733.7,01.19,0.508
2014-10-12 03:05:00,1891E-3,5C000000,-0724,0827,12365,026.6,045.4,0.478,733.7,01.19,0.508
2014-10-12 03:06:00,1955E-3,5C000000,-0724,0826,12215,026.6,045.4,0.478,733.7,01.19,0.508
2014-10-12 03:07:00,1841E-3,5C000000,-0724,0826,12137,026.6,045.4,0.478,733.7,01.19,0.508
2014-10-12 03:08:00,1935E-3,5C000000,-0724,0826,12283,026.5,045.4,0.478,733.6,01.19,0.508
2014-10-12 03:09:00,1940E-3,5C000000,-0724,0828,12238,026.5,045.4,0.478,733.6,01.19,0.508
2014-10-12 03:10:00,1935E-3,5C000000,-0724,0826,12201,026.4,045.4,0.478,733.6,01.19,0.508
2014-10-12 03:11:00,1971E-3,5C000000,-0724,0825,12343,026.3,045.4,0.478,733.6,01.19,0.508
2014-10-12 03:12:00,1857E-3,5C000000,-0724,0827,12168,026.3,045.4,0.479,733.7,01.19,0.508
2014-10-12 03:13:00,2018E-3,5C000000,-0724,0826,12125,026.3,045.4,0.478,733.6,01.19,0.508
2014-10-12 03:14:00,1937E-3,5C000000,-0724,0826,12316,026.2,045.4,0.479,733.6,01.19,0.508
2014-10-12 03:15:00,1846E-3,5C000000,-0724,0825,12109,026.2,045.4,0.478,733.6,01.19,0.508
2014-10-12 03:16:00,1919E-3,5C000000,-0724,0826,12224,026.2,045.4,0.479,733.6,01.19,0.508
2014-10-12 03:17:00,1836E-3,5C000000,-0724,0826,12334,026.1,045.4,0.479,733.6,01.19,0.508
2014-10-12 03:18:00,1893E-3,5C000000,-0724,0826,12319,026.1,045.4,0.479,733.6,01.19,0.508
2014-10-12 03:19:00,1921E-3,5C000000,-0724,0826,12404,026.1,045.4,0.479,733.5,01.19,0.508
2014-10-12 03:20:00,1939E-3,5C000000,-0724,0826,12268,026.1,045.4,0.479,733.5,01.19,0.508
2014-10-12 03:21:00,1924E-3,5C000000,-0724,0826,12123,026.0,045.4,0.479,733.5,01.19,0.508
2014-10-12 03:22:00,1919E-3,5C000000,-0724,0827,12009,026.0,045.4,0.479,733.5,01.19,0.508
2014-10-12 03:23:00,1989E-3,5C000000,-0724,0826,12290,026.0,045.4,0.479,733.5,01.19,0.508
2014-10-12 03:24:00,1936E-3,5C000000,-0724,0825,12311,026.0,045.4,0.479,733.5,01.19,0.508
2014-10-12 03:25:00,2034E-3,5C000000,-0724,0826,12138,025.9,045.4,0.479,733.5,01.19,0.508
2014-10-12 03:26:00,1942E-3,5C000000,-0724,0826,12200,026.0,045.4,0.479,733.5,01.19,0.508
2014-10-12 03:27:00,1894E-3,5C000000,-0724,0825,12187,025.9,045.4,0.479,733.5,01.19,0.508
2014-10-12 03:28:00,1955E-3,5C000000,-0724,0826,12342,025.9,045.4,0.479,733.5,01.19,0.508
2014-10-12 03:29:00,1945E-3,5C000000,-0724,0826,12344,025.9,045.4,0.479,733.5,01.19,0.508
2014-10-12 03:30:00,1776E-3,5C000000,-0724,0826,12193,025.9,045.4,0.480,733.5,01.19,0.508
2014-10-12 03:31:00,2461E-3,5C000000,-0724,0824,12262,025.9,045.4,0.480,733.5,01.19,0.508
2014-10-12 03:32:00,2404E-3,5C000000,-0724,0826,12378,025.9,045.4,0.480,733.5,01.19,0.508
2014-10-12 03:33:00,2697E-3,5C000000,-0724,0826,12252,025.9,045.4,0.479,733.4,01.19,0.508
2014-10-12 03:34:00,2934E-3,5C000000,-0724,0826,12299,025.9,045.4,0.479,733.4,01.19,0.508
2014-10-12 03:35:00,3027E-3,5C000000,-0724,0827,12358,025.9,045.4,0.480,733.4,01.19,0.508
2014-10-12 03:36:00,3255E-3,5C000000,-0724,0825,12036,025.9,045.4,0.480,733.4,01.19,0.508
2014-10-12 03:37:00,3438E-3,5C000000,-0724,0826,12347,025.9,045.4,0.480,733.5,01.19,0.508
2014-10-12 03:38:00,3063E-3,5C000000,-0724,0826,12255,025.9,045.4,0.479,733.5,01.19,0.508
2014-10-12 03:39:00,3158E-3,5C000000,-0724,0826,12246,025.9,045.4,0.479,733.5,01.19,0.508
2014-10-12 03:40:00,3266E-3,5C000000,-0724,0826,12256,025.9,045.4,0.480,733.5,01.19,0.508
2014-10-12 03:41:00,3112E-3,5C000000,-0724,0825,12261,025.9,045.4,0.480,733.5,01.19,0.508
2014-10-12 03:42:00,2991E-3,5C000000,-0724,0827,12145,025.9,045.4,0.479,733.4,01.19,0.508
2014-10-12 03:43:00,3071E-3,5C000000,-0724,0826,12305,025.8,045.4,0.479,733.5,01.19,0.508
2014-10-12 03:44:00,3233E-3,5C000000,-0724,0826,12358,025.9,045.4,0.480,733.5,01.19,0.508
2014-10-12 03:45:00,3167E-3,5C000000,-0724,0826,12306,025.8,045.4,0.480,733.5,01.19,0.508
2014-10-12 03:46:00,2943E-3,5C000000,-0724,0826,12125,025.8,045.4,0.480,733.5,01.19,0.508
2014-10-12 03:47:00,3020E-3,5C000000,-0724,0825,12172,025.8,045.4,0.479,733.4,01.19,0.508
2014-10-12 03:48:00,2700E-3,5C000000,-0724,0825,12345,025.9,045.4,0.480,733.4,01.19,0.508
2014-10-12 03:49:00,2819E-3,5C000000,-0724,0826,12275,025.9,045.4,0.480,733.5,01.19,0.508
2014-10-12 03:50:00,2771E-3,5C000000,-0724,0826,12324,025.9,045.4,0.480,733.4,01.19,0.508
2014-10-12 03:51:00,2738E-3,5C000000,-0724,0826,12175,025.8,045.4,0.479,733.4,01.19,0.508
2014-10-12 03:52:00,2957E-3,5C000000,-0724,0826,12369,025.9,045.4,0.480,733.4,01.19,0.508
2014-10-12 03:53:00,2856E-3,5C000000,-0724,0826,12319,025.8,045.4,0.480,733.4,01.19,0.508
2014-10-12 03:54:00,2893E-3,5C000000,-0724,0826,12169,025.8,045.4,0.479,733.4,01.19,0.508
2014-10-12 03:55:00,3026E-3,5C000000,-0724,0826,12259,025.8,045.4,0.479,733.4,01.19,0.508
2014-10-12 03:56:00,2952E-3,5C000000,-0724,0826,12132,025.8,045.4,0.480,733.4,01.19,0.508
2014-10-12 03:57:00,3032E-3,5C000000,-0724,0826,12222,025.8,045.4,0.480,733.4,01.19,0.508
2014-10-12 03:58:00,3094E-3,5C000000,-0724,0826,12348,025.9,045.4,0.479,733.4,01.19,0.508
2014-10-12 03:59:00,3159E-3,5C000000,-0724,0826,12099,025.9,045.4,0.480,733.4,01.19,0.508
2014-10-12 04:00:00,3406E-3,5C000000,-0724,0827,12234,025.9,045.4,0.480,733.4,01.19,0.508
2014-10-12 04:01:00,3161E-3,5C000000,-0724,0825,12043,026.0,045.4,0.479,733.4,01.19,0.508
2014-10-12 04:02:00,3231E-3,5C000000,-0724,0826,12106,026.0,045.4,0.479,733.4,01.19,0.508
2014-10-12 04:03:00,3231E-3,5C000000,-0724,0826,12340,026.1,045.4,0.479,733.4,01.19,0.508
2014-10-12 04:04:00,3122E-3,5C000000,-0724,0826,12218,026.2,045.5,0.479,733.4,01.19,0.508
2014-10-12 04:05:00,2970E-3,5C000000,-0724,0826,12283,026.4,045.4,0.478,733.4,01.19,0.508
2014-10-12 04:06:00,2855E-3,5C000000,-0724,0827,12058,026.4,045.4,0.479,733.4,01.19,0.508
2014-10-12 04:07:00,2770E-3,5C000000,-0724,0825,12195,026.5,045.4,0.478,733.4,01.19,0.508
2014-10-12 04:08:00,2952E-3,5C000000,-0724,0826,12192,026.5,045.4,0.478,733.4,01.19,0.508
2014-10-12 04:09:00,2764E-3,5C000000,-0724,0825,12218,026.6,045.4,0.478,733.4,01.19,0.508
2014-10-12 04:10:00,2859E-3,5C000000,-0724,0826,12385,026.6,045.4,0.478,733.4,01.19,0.508
2014-10-12 04:11:00,2799E-3,5C000000,-0724,0826,12056,026.6,045.4,0.478,733.5,01.19,0.508
2014-10-12 04:12:00,2605E-3,5C000000,-0724,0827,12084,026.6,045.4,0.478,733.5,01.19,0.508
2014-10-12 04:13:00,2611E-3,5C000000,-0724,0825,12015,026.6,045.4,0.478,733.5,01.19,0.508
2014-10-12 04:14:00,2502E-3,5C000000,-0724,0826,12265,026.6,045.4,0.478,733.5,01.19,0.508
2014-10-12 04:15:00,2652E-3,5C000000,-0724,0826,12182,026.6,045.4,0.478,733.5,01.19,0.508
2014-10-12 04:16:00,2440E-3,5C000000,-0724,0826,12287,026.5,045.4,0.478,733.5,01.19,0.508
2014-10-12 04:17:00,2236E-3,5C000000,-0724,0826,12185,026.4,045.4,0.478,733.5,01.19,0.508
2014-10-12 04:18:00,2401E-3,5C000000,-0724,0826,12278,026.4,045.4,0.478,733.4,01.19,0.508
2014-10-12 04:19:00,2128E-3,5C000000,-0724,0825,12224,026.3,045.4,0.478,733.4,01.19,0.508
2014-10-12 04:20:00,2110E-3,5C000000,-0724,0825,12190,026.3,045.4,0.479,733.4,01.19,0.508